Regional Weather Roundup
Issued by NWS

Home | Current Version | Previous Version | Graphics & Text | Print | Product List | Glossary On
Versions: 1 2 3 4 5 6 7 8 9 10 11 12 13 14 15 16 17 18 19 20 21 22 23 24 25 26 27 28 29 30 31 32 33 34 35 36 37 38 39 40 41 42 43 44 45 46 47 48 49 50
000
ASUS43 KBIS 301002
RWRND

NORTH DAKOTA REGIONAL WEATHER ROUNDUP
NATIONAL WEATHER SERVICE BISMARCK ND
500 AM CDT SAT APR 30 2016

NOTE: "FAIR" INDICATES FEW OR NO CLOUDS BELOW 12,000 FEET WITH NO
SIGNIFICANT WEATHER AND/OR OBSTRUCTIONS TO VISIBILITY.


NDZ001>003-009>011-017-301100-
NORTHWEST NORTH DAKOTA

CITY           SKY/WX    TMP DP  RH WIND       PRES   REMARKS
WILLISTON      CLEAR     40  29  64 CALM      30.20R
MINOT          CLEAR     37  26  64 CALM      30.22R
MINOT AFB      CLEAR     38  27  65 E8        30.21R
$$

NDZ018>021-031>035-040>046-301100-
SOUTHWEST NORTH DAKOTA

CITY           SKY/WX    TMP DP  RH WIND       PRES   REMARKS
BISMARCK       CLOUDY    38  32  79 NE10      30.14S
DICKINSON      CLOUDY    34  27  75 E8        30.12R
GARRISON         N/A     40  29  64 NE8       30.18R
HETTINGER ARPT CLOUDY    40  33  76 NE8       30.10S
$$

NDZ004>008-012>016-024-026-027-054-301100-
NORTHEAST NORTH DAKOTA

CITY           SKY/WX    TMP DP  RH WIND       PRES   REMARKS
GRAND FORKS    CLEAR     38  30  73 E9        30.22R
GRND FRKS AFB  CLEAR     32  28  84 NE5       30.22S
DEVILS LAKE    CLEAR     38  30  73 NE10      30.22R
$$

NDZ022-023-025-028>030-036>039-047>053-301100-
SOUTHEAST NORTH DAKOTA

CITY           SKY/WX    TMP DP  RH WIND       PRES   REMARKS
FARGO          CLEAR     44  31  60 E9        30.17S
JAMESTOWN      CLEAR     39  32  76 NE10      30.13R
$$




USA.gov is the U.S. government's official web portal to all federal, state and local government web resources and services.